Temperature
6 6 6 6 6 7 7 7 7 7 7 7 7 7 8 8 8 8 8 8 8 7 7 7 7 7 7 7 7 7 7 7 7 7 7 7 7 6 6 6 6 7 7
5 5 5 6 6 6 6 6 7 7 7 7 7 7 7 7 7 7 7 7 7 7 7 7 7 7 7 7 6 6 7 7 7 7 6 6 6 6 6 6 6 6 6
4 4 5 5 5 6 6 6 6 6 6 6 7 7 7 7 7 7 7 7 7 7 6 6 6 6 6 6 6 6 6 6 6 6 6 6 6 6 6 5 5 5 5
3 4 4 5 5 5 5 6 6 6 6 6 6 6 6 6 6 6 6 6 6 6 6 6 6 6 6 6 6 6 6 5 5 5 5 5 5 5 5 5 5 5 5
2 3 3 4 4 5 5 5 5 5 6 6 6 6 6 6 6 6 6 6 6 6 6 6 6 6 6 5 5 5 5 5 5 5 5 5 5 5 5 5 4 4 4
1 2 2 3 4 4 4 4 5 5 5 5 5 5 5 5 5 5 5 5 5 5 5 5 5 5 5 5 5 5 5 5 4 4 4 4 4 4 4 4 4 4 4
1 1 2 2 3 3 3 4 4 4 4 4 4 4 5 5 5 5 5 5 5 5 5 5 4 5 5 5 4 4 4 4 4 4 4 4 4 4 4 3 3 3 3
-0 0 1 1 2 2 2 3 3 3 3 3 4 4 4 4 4 4 4 4 4 4 4 4 4 4 4 4 4 4 4 4 4 3 3 3 3 3 3 3 3 3 3
-1 -0 0 1 1 1 1 2 2 2 2 2 3 3 3 3 3 3 3 3 4 4 4 4 4 3 3 3 3 3 3 3 3 3 3 3 3 3 2 2 2 2 2
-1 -1 -1 -0 -0 0 1 1 1 1 2 2 2 2 2 2 3 3 3 3 3 3 3 3 3 3 3 3 2 2 2 2 2 2 2 2 2 2 2 2 2 1 1
-2 -1 -1 -1 -1 -1 -0 0 0 1 1 1 1 1 1 1 2 2 2 2 2 2 2 2 2 2 2 2 2 2 2 2 2 1 1 1 1 1 1 1 1 1 0
-2 -2 -2 -1 -1 -1 -1 -1 -0 -0 -0 0 0 0 0 1 1 1 1 1 2 2 2 1 1 1 1 1 1 1 1 1 1 1 1 1 1 1 1 1 0 0 -0
-3 -3 -2 -2 -2 -2 -1 -1 -1 -1 -1 -0 -0 -0 -0 -0 -0 0 0 1 1 1 1 1 1 1 0 0 0 0 0 0 0 0 0 0 0 0 0 -0 -0 -0 -0
-4 -3 -3 -3 -2 -2 -2 -2 -2 -2 -1 -1 -1 -1 -1 -1 -1 -0 -0 -0 -0 -0 -0 -0 -0 -0 -0 -0 -0 -0 -0 -0 -0 -0 -0 -0 -0 -1 -1 -1 -1 -1 -1
-4 -4 -4 -3 -3 -3 -3 -3 -2 -2 -2 -2 -2 -1 -1 -1 -1 -1 -1 -1 -1 -1 -1 -1 -1 -1 -1 -1 -1 -1 -1 -1 -1 -1 -1 -1 -1 -1 -1 -1 -2 -2 -2
-5 -5 -4 -4 -4 -4 -4 -3 -3 -3 -3 -2 -2 -2 -2 -2 -2 -2 -2 -2 -1 -1 -1 -1 -1 -1 -1 -1 -2 -2 -1 -2 -2 -2 -2 -2 -2 -2 -2 -2 -2 -2 -3
-6 -5 -5 -5 -5 -5 -4 -4 -4 -4 -3 -3 -3 -3 -3 -2 -2 -2 -2 -2 -2 -2 -2 -2 -2 -2 -2 -2 -2 -2 -2 -2 -2 -2 -2 -2 -2 -2 -3 -3 -3 -3 -3
-6 -6 -6 -6 -5 -5 -5 -5 -5 -4 -4 -4 -4 -3 -3 -3 -3 -3 -3 -3 -3 -3 -3 -3 -3 -3 -3 -3 -3 -3 -3 -3 -3 -3 -3 -3 -3 -3 -3 -3 -4 -4 -4
-7 -7 -6 -6 -6 -6 -5 -5 -5 -5 -5 -5 -4 -4 -4 -4 -4 -3 -3 -3 -3 -3 -3 -3 -3 -3 -3 -3 -3 -3 -3 -3 -3 -3 -4 -4 -4 -4 -4 -4 -4 -4 -4
-7 -7 -7 -6 -6 -6 -6 -6 -6 -5 -5 -5 -5 -5 -4 -4 -4 -4 -4 -4 -4 -4 -4 -4 -4 -4 -4 -4 -4 -4 -4 -4 -4 -4 -4 -4 -4 -4 -4 -5 -5 -5 -5
-7 -7 -7 -7 -7 -6 -6 -6 -6 -6 -6 -5 -5 -5 -5 -5 -5 -4 -4 -4 -4 -4 -4 -4 -4 -4 -4 -4 -4 -4 -4 -4 -5 -5 -5 -5 -5 -5 -5 -5 -5 -6 -6
-8 -8 -7 -7 -7 -7 -7 -6 -6 -6 -6 -6 -6 -5 -5 -5 -5 -5 -5 -5 -5 -5 -5 -5 -5 -5 -5 -5 -5 -5 -5 -5 -5 -5 -5 -5 -6 -6 -6 -6 -6 -6 -6
-8 -8 -8 -8 -8 -7 -7 -7 -7 -7 -6 -6 -6 -6 -6 -6 -6 -6 -6 -5 -5 -5 -6 -6 -6 -5 -5 -5 -5 -5 -5 -5 -5 -5 -6 -6 -6 -6 -6 -6 -6 -6 -7
-9 -9 -8 -8 -8 -8 -8 -7 -7 -7 -7 -7 -7 -6 -6 -6 -6 -6 -6 -6 -6 -6 -6 -6 -6 -6 -6 -6 -6 -6 -6 -6 -6 -6 -6 -6 -6 -6 -7 -7 -7 -7 -7
-9 -9 -9 -9 -9 -8 -8 -8 -8 -8 -7 -7 -7 -7 -7 -7 -7 -7 -6 -6 -6 -6 -6 -6 -6 -6 -6 -6 -6 -6 -6 -6 -6 -6 -7 -7 -7 -7 -7 -7 -7 -7 -8
-10 -10 -9 -9 -9 -9 -9 -8 -8 -8 -8 -8 -8 -8 -7 -7 -7 -7 -7 -7 -7 -7 -7 -7 -7 -7 -7 -6 -6 -6 -6 -7 -7 -7 -7 -7 -7 -7 -8 -8 -8 -8 -8
Wind_Speed
3 4 5 5 6 6 6 7 7 6 7 7 8 7 7 7 6 6 6 6 6 6 6 6 6 5 4 4 4 4 4 4 4 3 1 1 2 1 0 0 1 1 1
3 4 5 5 5 6 6 6 7 7 7 7 7 7 7 6 7 7 7 6 7 7 7 6 6 5 5 5 4 5 4 4 4 4 2 2 2 1 1 0 1 1 0
2 3 4 4 5 5 5 5 6 6 6 6 7 7 7 7 7 7 7 7 7 7 7 7 7 6 6 5 5 5 4 3 3 3 3 1 1 1 1 1 1 1 1
2 2 3 4 5 5 5 5 5 5 6 6 6 7 7 7 7 7 7 7 7 6 6 6 6 6 7 6 5 5 4 4 3 3 3 2 2 1 1 2 2 1 1
2 2 3 3 3 4 4 4 4 4 5 5 5 5 6 6 6 7 7 7 7 6 6 6 5 5 5 5 4 5 5 4 4 3 3 2 2 2 2 2 2 2 2
2 2 2 2 2 3 3 3 4 4 4 4 5 5 5 4 6 7 6 6 6 6 6 5 4 5 5 5 4 3 4 5 5 4 4 4 4 3 3 3 2 2 2
2 2 2 1 2 2 2 3 4 4 4 4 4 5 5 5 6 7 6 5 5 5 6 5 4 4 5 5 4 4 3 2 4 5 5 5 4 4 4 4 3 3 3
2 2 2 1 2 2 2 3 4 3 4 3 3 4 4 4 6 6 6 5 5 5 5 6 5 5 5 6 5 4 2 2 2 3 3 3 3 3 3 3 3 2 2
2 3 3 2 2 2 3 3 3 3 3 3 3 3 4 4 6 7 6 5 4 4 4 4 5 5 7 8 6 5 4 2 3 4 3 2 2 2 3 2 2 2 3
4 4 3 3 3 3 3 3 3 3 3 3 3 3 4 4 5 6 6 5 5 4 3 3 5 6 8 8 6 6 5 4 4 3 3 3 2 3 3 3 3 3 2
5 4 3 2 2 2 2 2 3 3 3 3 3 2 2 3 4 6 6 4 5 5 4 3 4 7 8 8 6 5 5 4 4 3 3 2 2 2 2 2 2 2 3
4 3 3 2 2 1 2 2 2 3 4 4 3 2 2 2 3 5 5 4 4 4 4 3 4 7 6 6 5 5 6 4 3 3 3 2 2 2 1 1 1 2 3
4 4 3 2 1 1 1 2 2 3 3 3 3 3 2 2 2 4 5 5 4 3 3 5 5 6 6 4 5 6 5 3 3 3 3 3 2 2 1 1 1 1 2
4 3 3 2 2 1 0 1 2 2 3 3 3 3 3 2 2 2 3 3 4 4 4 5 6 6 4 4 4 3 2 2 3 3 2 2 1 1 1 1 1 1 2
3 3 3 2 2 1 1 1 1 1 2 3 3 3 4 3 3 4 4 3 3 4 5 3 3 3 3 3 2 2 2 2 2 2 2 2 2 2 1 1 1 2 2
3 3 2 2 1 1 1 2 3 1 2 1 1 2 2 2 4 5 4 4 5 7 5 4 3 3 3 3 3 3 2 2 2 2 2 2 2 2 2 1 2 2 3
3 3 2 2 1 1 0 0 1 2 3 2 1 1 3 4 4 5 6 6 6 6 3 3 3 3 3 3 3 3 3 2 2 2 2 2 2 2 2 2 3 3 3
4 3 2 2 2 1 1 0 0 1 1 1 1 1 2 3 3 4 5 5 3 3 2 3 3 3 3 3 3 3 2 2 2 3 3 2 3 3 3 3 3 4 4
4 2 2 2 2 1 1 1 0 0 1 0 0 1 1 2 3 3 4 3 3 3 3 3 3 3 3 3 3 3 3 3 3 3 3 3 3 3 3 3 4 4 5
4 4 3 2 2 1 1 0 0 0 1 1 1 1 0 1 2 2 2 2 2 3 3 2 2 3 3 3 3 3 3 3 4 3 3 3 3 3 4 4 4 4 4
3 3 4 2 2 1 1 1 1 1 1 1 1 1 1 1 2 2 2 2 3 3 3 3 3 3 3 3 3 4 4 4 4 4 4 3 3 4 4 4 4 4 4
3 3 3 2 2 2 1 1 1 1 1 1 1 1 0 0 1 1 2 2 2 2 3 3 3 3 4 4 4 4 4 4 4 4 4 4 4 4 4 4 4 4 4
3 3 3 2 2 2 1 1 1 1 1 1 1 1 1 1 1 1 2 2 2 2 2 3 3 3 4 4 5 5 5 5 5 5 4 4 4 4 4 4 5 5 5
3 3 3 3 2 2 2 2 1 1 2 2 1 1 1 1 2 2 2 2 2 2 3 4 4 5 5 5 5 6 6 6 6 7 7 6 5 5 4 5 5 6 6
3 3 3 3 3 2 2 2 2 2 2 2 2 2 2 2 2 2 2 2 3 3 3 4 4 5 6 7 7 6 7 8 8 7 7 6 6 6 6 6 5 6 6
3 3 3 3 3 3 3 2 2 2 2 2 2 2 2 2 2 2 2 3 3 3 3 4 4 5 6 6 6 7 8 8 9 9 8 6 6 6 6 5 6 6 6
Wind_Direction
206 206 203 202 201 196 193 196 196 193 188 190 193 193 193 194 194 195 199 199 205 208 206 209 212 212 210 211 211 214 219 223 232 239 229 223 244 237 246 297 317 336 37
222 218 207 201 199 196 196 198 198 195 194 195 193 196 197 196 198 200 202 203 208 210 208 208 213 209 215 215 211 214 216 216 220 224 226 223 247 236 229 259 282 308 335
234 222 211 200 199 199 199 198 197 195 194 195 195 197 200 200 200 204 204 203 208 211 209 209 212 208 213 213 212 213 211 208 210 209 218 224 244 221 221 241 239 262 312
255 229 220 209 207 206 202 198 197 194 193 194 197 199 201 202 202 200 202 204 206 209 211 211 212 209 212 210 210 211 204 200 192 191 201 213 220 213 220 230 238 249 275
280 249 241 228 210 202 198 196 195 194 195 195 195 198 200 200 201 198 199 202 203 203 206 208 207 201 203 204 203 204 197 197 191 188 199 207 207 200 215 224 244 245 264
293 271 265 248 214 201 196 193 192 190 193 195 198 199 201 204 191 193 194 195 197 195 195 194 190 185 178 176 182 187 194 197 197 199 208 211 215 218 213 205 217 243 251
294 287 276 256 235 221 201 194 195 190 186 196 204 202 205 200 186 187 186 190 193 192 190 187 179 171 165 167 159 153 168 195 206 207 207 215 215 214 207 210 223 248 266
303 304 289 274 261 245 217 203 200 194 193 196 201 203 198 190 178 178 175 188 189 193 193 190 183 181 176 167 161 161 174 187 197 205 210 215 214 205 214 222 220 246 273
308 307 304 279 257 251 239 223 204 190 192 191 191 191 187 181 172 171 176 184 184 189 190 191 186 183 168 163 167 167 168 168 139 151 159 157 155 175 185 180 194 221 258
313 304 294 278 252 243 242 230 212 191 184 178 178 184 181 181 169 169 175 179 178 175 173 179 183 185 175 175 180 179 184 189 174 156 153 162 177 179 182 202 215 222 252
317 312 308 295 271 253 246 228 198 181 172 168 164 164 168 168 162 165 174 178 178 174 175 182 183 173 177 180 187 192 186 180 180 176 173 180 182 186 191 207 228 238 244
328 328 332 327 308 270 234 207 187 176 171 165 155 150 151 156 158 166 170 172 171 172 176 178 169 160 168 174 182 171 162 164 176 179 184 194 201 208 208 213 234 253 261
344 345 346 342 323 280 209 182 178 177 172 167 165 164 162 158 150 148 159 158 157 163 156 148 150 150 149 159 162 163 168 179 182 189 196 203 206 204 185 190 232 254 267
346 346 350 355 353 358 337 186 178 178 175 171 173 173 166 165 165 160 158 149 146 145 138 136 135 132 133 133 144 159 181 182 188 192 189 183 176 184 201 221 245 258 271
346 351 355 359 0 19 25 18 205 201 196 186 186 182 178 188 190 171 167 166 163 156 144 142 151 155 154 156 157 159 157 160 171 179 180 187 196 205 220 231 247 257 260
349 350 352 354 350 6 61 55 47 68 63 99 191 192 191 185 170 171 167 159 155 157 155 165 171 174 177 178 179 177 177 179 183 183 192 200 205 212 223 234 247 250 257
342 338 338 338 334 327 349 130 80 60 70 83 115 171 183 170 171 171 166 160 163 166 171 176 182 184 185 186 188 186 189 189 186 194 201 207 214 219 226 236 244 254 259
339 336 332 327 324 315 294 256 186 159 116 62 61 125 154 162 165 163 161 155 165 177 184 185 189 189 187 188 190 189 184 184 192 201 205 209 219 222 227 236 243 253 260
334 333 333 328 325 319 319 317 209 169 171 160 82 94 121 138 142 148 160 168 175 185 189 191 191 190 190 191 193 193 193 196 198 202 209 214 224 229 234 240 248 251 258
332 335 330 318 320 323 321 307 253 198 200 208 214 233 213 158 158 160 171 175 182 192 195 198 199 196 194 196 199 200 203 205 203 209 214 218 226 233 238 244 247 251 256
326 327 330 318 313 313 311 296 267 234 229 238 256 254 221 195 192 189 187 192 196 202 204 204 205 203 205 207 209 208 211 215 215 217 218 222 227 235 242 245 249 254 261
321 320 323 318 315 312 311 305 292 270 255 259 277 295 280 237 196 200 209 214 217 215 213 210 213 214 214 215 215 216 219 221 220 220 222 224 231 237 240 243 248 254 257
322 322 323 319 316 316 317 312 300 285 276 272 265 258 249 231 217 223 232 233 232 227 221 219 221 223 224 223 223 222 224 225 223 221 222 226 232 237 239 242 246 253 257
319 316 315 315 312 311 309 301 297 290 279 271 266 260 256 250 239 238 244 246 243 238 233 230 229 228 228 231 234 233 233 231 226 224 221 226 233 239 240 243 249 252 256
318 317 314 310 307 301 298 297 294 290 285 280 277 272 267 260 253 250 251 252 250 248 247 246 242 236 235 236 238 239 233 230 229 229 228 229 233 236 239 244 247 252 254
321 318 313 309 304 301 293 288 286 286 282 281 277 271 267 261 258 257 255 255 254 253 252 252 246 245 246 247 243 238 236 236 236 236 236 234 234 237 238 243 246 248 252
Height
1488 1491 1494 1496 1499 1502 1504 1507 1510 1512 1515 1517 1519 1522 1524 1526 1528 1530 1532 1533 1535 1537 1538 1539 1541 1542 1544 1545 1547 1548 1549 1551 1551 1551 1552 1553 1553 1554 1554 1554 1554 1554 1554
1485 1487 1489 1492 1495 1498 1500 1503 1506 1509 1511 1513 1516 1518 1520 1522 1524 1526 1528 1529 1531 1532 1534 1535 1537 1538 1539 1541 1542 1544 1545 1546 1547 1547 1548 1549 1550 1551 1551 1551 1551 1550 1550
1481 1483 1486 1488 1491 1494 1497 1499 1502 1504 1507 1509 1512 1514 1516 1518 1520 1522 1524 1525 1527 1528 1530 1531 1532 1534 1535 1537 1538 1540 1541 1542 1543 1544 1544 1545 1546 1547 1547 1548 1548 1547 1547
1478 1480 1482 1484 1487 1490 1493 1495 1498 1500 1503 1505 1507 1509 1512 1514 1515 1517 1519 1521 1523 1524 1525 1527 1528 1529 1531 1532 1534 1535 1537 1538 1539 1540 1541 1542 1542 1543 1544 1544 1544 1544 1544
1475 1476 1478 1481 1483 1486 1488 1491 1493 1496 1498 1501 1503 1505 1507 1509 1511 1513 1515 1517 1518 1520 1521 1522 1524 1525 1527 1528 1530 1531 1533 1534 1535 1536 1537 1538 1538 1539 1540 1540 1540 1540 1540
1472 1474 1475 1477 1479 1482 1484 1487 1489 1491 1494 1496 1498 1500 1502 1504 1507 1509 1511 1512 1514 1515 1517 1518 1520 1521 1522 1524 1526 1527 1529 1530 1531 1532 1533 1534 1534 1535 1536 1536 1537 1537 1536
1470 1471 1472 1474 1476 1478 1480 1482 1484 1487 1489 1491 1493 1495 1497 1499 1502 1504 1506 1508 1509 1511 1513 1514 1515 1517 1518 1520 1521 1522 1524 1525 1527 1528 1529 1529 1531 1531 1532 1532 1533 1533 1533
1467 1468 1469 1470 1472 1474 1476 1478 1481 1483 1485 1487 1489 1491 1493 1495 1497 1500 1502 1504 1505 1507 1509 1510 1512 1513 1514 1516 1517 1518 1520 1521 1522 1523 1525 1526 1527 1528 1529 1529 1529 1529 1529
1465 1466 1467 1468 1469 1471 1473 1475 1477 1479 1481 1483 1485 1487 1488 1490 1493 1495 1498 1499 1501 1503 1505 1506 1508 1509 1511 1512 1514 1515 1516 1517 1518 1520 1521 1522 1523 1524 1525 1525 1525 1526 1525
1463 1464 1465 1466 1467 1468 1470 1472 1474 1476 1478 1480 1481 1483 1485 1487 1489 1491 1494 1495 1497 1498 1500 1502 1504 1505 1507 1508 1510 1511 1512 1513 1515 1516 1517 1518 1519 1520 1520 1521 1521 1522 1521
1461 1462 1463 1464 1465 1466 1467 1469 1471 1472 1474 1476 1478 1480 1481 1483 1485 1487 1489 1491 1493 1494 1496 1498 1500 1501 1503 1505 1506 1507 1509 1510 1511 1512 1513 1514 1515 1516 1516 1517 1517 1518 1518
1459 1460 1461 1462 1463 1464 1465 1466 1468 1469 1471 1472 1474 1476 1478 1480 1482 1483 1486 1487 1489 1491 1492 1494 1496 1498 1499 1501 1502 1504 1505 1507 1508 1509 1510 1510 1511 1512 1512 1513 1513 1513 1513
1457 1458 1459 1460 1461 1462 1462 1463 1465 1466 1467 1469 1471 1472 1474 1476 1478 1480 1482 1484 1486 1487 1489 1491 1493 1494 1496 1497 1499 1500 1502 1503 1504 1505 1505 1506 1507 1508 1508 1509 1509 1509 1509
1456 1456 1457 1457 1458 1459 1460 1461 1462 1463 1464 1466 1467 1469 1471 1473 1475 1477 1478 1480 1482 1484 1485 1487 1489 1491 1492 1494 1495 1496 1498 1499 1500 1501 1502 1503 1503 1504 1504 1505 1505 1505 1505
1455 1455 1455 1456 1456 1457 1458 1459 1460 1461 1462 1463 1465 1466 1468 1470 1472 1474 1475 1477 1479 1481 1482 1484 1485 1487 1488 1490 1491 1493 1494 1495 1496 1497 1498 1499 1499 1500 1500 1501 1501 1501 1501
1454 1454 1454 1454 1455 1455 1456 1457 1458 1459 1460 1462 1463 1464 1466 1468 1469 1471 1473 1475 1476 1478 1479 1480 1482 1483 1485 1486 1487 1489 1490 1491 1492 1493 1494 1495 1495 1496 1496 1497 1497 1497 1496
1454 1453 1453 1453 1454 1454 1454 1455 1456 1457 1458 1460 1461 1462 1463 1465 1466 1468 1470 1471 1473 1475 1476 1477 1478 1480 1481 1482 1484 1485 1486 1487 1488 1489 1490 1491 1492 1492 1493 1493 1492 1492 1492
1453 1453 1453 1453 1453 1453 1453 1454 1454 1455 1456 1457 1459 1460 1461 1462 1463 1465 1467 1469 1470 1471 1473 1474 1475 1476 1477 1479 1480 1481 1482 1483 1485 1486 1486 1487 1488 1488 1488 1488 1488 1488 1487
1453 1452 1452 1452 1452 1452 1452 1453 1453 1454 1454 1455 1456 1457 1459 1459 1461 1462 1464 1465 1466 1467 1469 1470 1471 1473 1474 1475 1476 1477 1478 1479 1480 1481 1482 1483 1483 1484 1484 1484 1484 1483 1483
1452 1452 1451 1451 1451 1451 1451 1452 1452 1452 1453 1453 1454 1455 1456 1457 1458 1459 1460 1461 1463 1464 1465 1467 1468 1469 1470 1471 1472 1473 1474 1475 1476 1477 1477 1478 1479 1479 1479 1479 1479 1479 1478
1451 1451 1451 1450 1450 1450 1450 1451 1451 1451 1452 1452 1452 1453 1454 1455 1455 1456 1457 1458 1459 1461 1462 1463 1464 1465 1466 1467 1468 1469 1470 1471 1471 1472 1473 1474 1474 1475 1475 1475 1474 1474 1473
1450 1450 1450 1449 1449 1449 1449 1449 1449 1450 1450 1450 1450 1451 1451 1452 1453 1453 1454 1455 1456 1457 1458 1459 1460 1461 1462 1463 1464 1465 1465 1466 1467 1467 1468 1469 1469 1470 1470 1470 1470 1469 1469
1449 1449 1448 1448 1448 1448 1448 1447 1448 1448 1448 1448 1448 1448 1449 1449 1450 1450 1451 1452 1452 1453 1454 1455 1456 1457 1458 1458 1459 1460 1461 1461 1462 1463 1464 1464 1465 1465 1465 1465 1465 1464 1464
1448 1447 1447 1446 1446 1446 1445 1445 1445 1445 1445 1446 1446 1446 1446 1446 1447 1447 1448 1448 1449 1449 1450 1451 1452 1452 1453 1454 1454 1455 1456 1457 1457 1458 1459 1459 1460 1460 1460 1460 1459 1459 1458
1447 1446 1445 1445 1444 1444 1444 1443 1443 1443 1443 1443 1443 1443 1443 1443 1444 1444 1444 1445 1445 1446 1446 1447 1447 1448 1448 1449 1450 1450 1451 1452 1452 1453 1454 1454 1455 1455 1455 1455 1454 1454 1453
1445 1444 1444 1443 1442 1442 1441 1441 1441 1440 1440 1440 1440 1440 1440 1440 1440 1441 1441 1441 1441 1442 1442 1443 1443 1443 1444 1444 1445 1445 1446 1447 1447 1448 1449 1449 1449 1449 1449 1449 1449 1449 1448